STARLINK-4726, 53802

Orbit data source: Space-Track

STARLINK-4726, 53802 is a payload satellite owned by SpaceX/Seattle (US) in LEO that was launched on Sun, 11 Sep 2022 UTC via an FALCON 9 launch vehicle from the Air Force Eastern Test Range (AFETR). Payload-class satellites include a variety of spacecraft equipped with specific instruments for various scientific and technological missions. These include communications satellites like Starlink; space stations such as the ISS; scientific satellites like the Hubble; Earth observation satellites from companies like Planet Labs, Umbra, and HawkEye 360; GPS; miniature CubeSats for education and research; and military/defense satellites.

Loading next visibility...
Identifier
53802, 2022-111AF
Orbit
LEO
Last TLE update
1 day ago
Origin
Manufacturer
SpaceX/Seattle
Mission
Operational Commercial Communications
Bus & Motor
STARLINK, Unknown motor
Mass
305 kg wet, ~290 kg dry
Launch date (UTC)
2022-09-11 (3 years ago)
Launch vehicle
FALCON 9
Launch site
Air Force Eastern Test Range (AFETR)
Object type
Payload
Rocket body
Debris
Shape & HBR
Box + 1 Pan, 8.86 m
Radar Cross Section
13.562 m², Large (>1 m²)

Expand to show TLE details & history

TLE from 1 day ago
0 STARLINK-4726
1 53802U 22111AF  25185.52370449  .00000347  00000-0  39876-4 0  9991
2 53802  53.2194 298.0495 0001077  82.0846 278.0268 15.08835312156353
Epoch: 2025-07-04T12:34Z
TLE epoch observation values (Epoch: 2025-07-04T12:34:08.067Z)
Latitude
-0.00008°
Longitude
-173.25904°
Altitude
540.551 km
Speed
7.593 km/s
True Right ascension
19h 52m 11s
True Declination
0° 00' 00"
Sunlit
Object was in full shadow at epoch
Visualization orbit readout
Latitude
-2.93807°
Longitude
3.42268°
Altitude
541.181 km
Speed
7.593 km/s
Apparent Right ascension
10h 21m 06s
Apparent Declination
-53° 17' 59"
Sunlit
Object is in daylight
Visualization observer readout
Local Sidereal Time
05:55:08
Azimuth
144.485° SSE
Elevation
-19.369°
Doppler factor
1
Orbital elements
Apogee altitude
540.747 km
Perigee altitude
539.257 km
Semi-major axis
6,918.139 km
Eccentricity
0.00011
Inclination
53.2194°
RAAN
298.0495°
Arg. of periapsis
82.0846°
True anomaly
Unknown
Mean anomaly
278.0268°
Eccentric anomaly
Unknown
Mean motion
3.77189 °/min
Orbital period
95.44 mins
BSTAR
0.000039876
Loading maneuver chart data...
Loading SW <> Apogee altitude chart data...
Loading historical data...
Loading historical data...
Loading historical data...
Loading historical data...
Loading historical data...
Loading historical data...
Loading historical data...

STARLINK-4726 Visibility forecast

Observer location: undefined°, undefined°

Span
Click to sort rows by Start time (UTC) header in descending order
Start Az.
Max El. time (UTC)
Max El. Az.
Max El.
End time (UTC)
End Az.
6 mins2025-07-06 09:14:40.691Z199.043° SSW2025-07-06 09:17:40.691Z130.711° SE33.599°2025-07-06 09:20:40.691Z66.782° ENE
5 mins2025-07-06 10:54:40.691Z278.243° WNW2025-07-06 10:56:40.691Z319.916° NNW27.141°2025-07-06 10:59:40.691Z26.407° NE
6 mins2025-07-06 15:55:40.691Z328.38° NNW2025-07-06 15:58:40.691Z47.929° ENE33.606°2025-07-06 16:01:40.691Z103.159° ESE
5 mins2025-07-06 17:35:40.691Z271.04° WNW2025-07-06 17:37:40.691Z225.988° WSW24.417°2025-07-06 17:40:40.691Z173.879° S
|